Seward, AK

5:47 AM AKDT on August 27, 2016 (GMT -0800)
Seward

Weather History for PAWD - October, 2011

Change the Weather History Date:

Friday, October 21, 2011

  Actual Average Record
Temperature  
Mean Temperature 42 °F -  
Max Temperature 46 °F 42 °F 55 °F (1957)
Min Temperature 39 °F 33 °F 21 °F (1955)
Degree Days  
Heating Degree Days 22    
Moisture  
Dew Point 36 °F    
Average Humidity 78    
Maximum Humidity 93    
Minimum Humidity 61    
Precipitation  
Precipitation 0.08 in - - ()
Sea Level Pressure  
Sea Level Pressure 29.33 in    
Wind  
Wind Speed 4 mph (NNW)    
Max Wind Speed 13 mph    
Max Gust Speed 20 mph    
Visibility 10 miles    
Events Rain    
Averages and records for this station are not official NWS values.
T = Trace of Precipitation, MM = Missing Value Source: NWS Daily Summary

Daily Weather History Graph

Daily Weather History Graph

Search for Another Location

Airport or City:

Trip Planner

Search our weather history database for the weather conditions in past years. The results will help you decide how hot, cold, wet, or windy it might be!

Date:

Astronomy

Oct. 21, 2011 Rise Set
Actual Time 8:52 AM AKDT 6:31 PM AKDT
Civil Twilight 8:09 AM AKDT 7:14 PM AKDT
Nautical Twilight 7:20 AM AKDT 8:02 PM AKDT
Astronomical Twilight 6:31 AM AKDT 8:51 PM AKDT
Moon 1:24 AM AKDT (10/21) 4:36 PM AKDT (10/21)
Length of Visible Light 11h 05m
Length of Day
9h 38m
Waning Crescent, 32% of the Moon is Illuminated
Oct 21
Waning Crescent
Oct 26
New
Nov 2
First Quarter
Nov 10
Full
Nov 18
Last Quarter

Hourly Weather History & Observations

Time (AKDT) Temp. Windchill Dew Point Humidity Pressure Visibility Wind Dir Wind Speed Gust Speed Precip Events Conditions
12:53 AM 43.0 °F 40.3 °F 33.1 °F 68% 29.45 in 10.0 mi NNW 4.6 mph - N/A   Overcast
1:53 AM 43.0 °F 39.5 °F 34.0 °F 71% 29.44 in 10.0 mi North 5.8 mph - 0.00 in Rain Light Rain
2:53 AM 39.9 °F - 36.0 °F 86% 29.42 in 10.0 mi Calm Calm - 0.00 in   Overcast
3:53 AM 43.0 °F 40.3 °F 34.0 °F 71% 29.40 in 10.0 mi NNW 4.6 mph - 0.00 in   Overcast
4:53 AM 44.1 °F 40.1 °F 34.0 °F 68% 29.38 in 10.0 mi NNW 6.9 mph - N/A   Overcast
5:53 AM 45.0 °F 42.6 °F 33.1 °F 63% 29.35 in 10.0 mi NW 4.6 mph - N/A   Overcast
6:53 AM 42.1 °F 40.2 °F 36.0 °F 79% 29.34 in 10.0 mi SSW 3.5 mph - 0.00 in Rain Light Rain
7:53 AM 44.1 °F 40.1 °F 34.0 °F 68% 29.33 in 10.0 mi North 6.9 mph - 0.01 in   Overcast
8:53 AM 44.1 °F 41.5 °F 34.0 °F 68% 29.31 in 10.0 mi NNW 4.6 mph - 0.00 in   Overcast
9:53 AM 44.1 °F 40.1 °F 34.0 °F 68% 29.31 in 10.0 mi North 6.9 mph - 0.00 in Rain Light Rain
10:53 AM 46.0 °F 40.6 °F 33.1 °F 61% 29.30 in 10.0 mi North 11.5 mph 17.3 mph 0.00 in Rain Light Rain
11:53 AM 46.0 °F 40.2 °F 33.1 °F 61% 29.29 in 10.0 mi North 12.7 mph 19.6 mph 0.00 in   Overcast
12:53 PM 45.0 °F 41.2 °F 34.0 °F 65% 29.30 in 10.0 mi North 6.9 mph - 0.00 in Rain Light Rain
1:53 PM 44.1 °F 41.5 °F 35.1 °F 71% 29.31 in 10.0 mi NNW 4.6 mph - 0.01 in Rain Light Rain
2:53 PM 44.1 °F - 35.1 °F 71% 29.31 in 10.0 mi Calm Calm - 0.01 in Rain Light Rain
3:53 PM 43.0 °F - 37.9 °F 82% 29.29 in 10.0 mi Calm Calm - 0.00 in   Overcast
4:53 PM 43.0 °F - 37.9 °F 82% 29.29 in 10.0 mi Calm Calm - N/A   Overcast
5:53 PM 42.1 °F 40.2 °F 39.0 °F 89% 29.28 in 10.0 mi South 3.5 mph - 0.00 in   Overcast
6:53 PM 42.1 °F 40.2 °F 37.9 °F 85% 29.29 in 10.0 mi South 3.5 mph - 0.01 in Rain Light Rain
7:23 PM 42.8 °F 40.1 °F 39.2 °F 87% 29.30 in 10.0 mi SSE 4.6 mph - 0.00 in   Overcast
7:53 PM 42.1 °F 39.2 °F 37.9 °F 85% 29.31 in 10.0 mi South 4.6 mph - 0.00 in Rain Light Rain
8:53 PM 41.0 °F - 37.9 °F 89% 29.32 in 10.0 mi Calm Calm - 0.01 in Rain Light Rain
9:53 PM 39.9 °F - 37.9 °F 93% 29.33 in 10.0 mi Calm Calm - 0.00 in Rain Light Rain
10:21 PM 39.2 °F - 37.4 °F 93% 29.33 in 8.0 mi Calm Calm - 0.02 in Rain Light Rain
10:42 PM 39.2 °F - 37.4 °F 93% 29.33 in 10.0 mi Calm Calm - 0.03 in Rain Light Rain
10:53 PM 39.9 °F - 37.9 °F 93% 29.34 in 10.0 mi Calm Calm - 0.03 in   Overcast
11:53 PM 39.9 °F 36.7 °F 37.0 °F 89% 29.35 in 10.0 mi NNE 4.6 mph - 0.00 in Rain Light Rain